Regional Weather Roundup
Issued by NWS State College, PA

Home | Current Version | Previous Version | Graphics & Text | Print | Product List | Glossary Off
Versions: 1 2 3 4 5 6 7 8 9 10 11 12 13 14 15 16 17 18 19 20 21 22 23 24 25 26 27 28 29 30 31 32 33 34 35 36 37 38 39 40 41 42 43 44 45 46 47 48 49 50

000
ASUS41 KCTP 251310
RWRCTP

REGIONAL WEATHER ROUNDUP
NATIONAL WEATHER SERVICE STATE COLLEGE PA
900 AM EDT THU MAY 25 2017

Note: "fair" indicates few or no clouds below 12,000 feet with no
significant weather and/or obstructions to visibility.

* = STATION THAT DOES NOT REPORT PRECIPITATION /E.G. RAIN...SNOW...ETC/
    THUNDER OR FOG.

PAZ002>004-007>009-013>016-020>023-029>032-251400-
WESTERN PENNSYLVANIA

CITY           SKY/WX    TMP DP  RH WIND       PRES   REMARKS
ERIE           HVY RAIN  56  53  90 SE9       29.49S FOG
MEADVILLE      LGT RAIN  54  53  97 VRB3      29.49S
FRANKLIN*      CLOUDY    54  48  82 E8        29.50S
NEW CASTLE     LGT RAIN  56  55  97 CALM      29.49S FOG
BEAVER COUNTY  LGT RAIN  55  54  94 CALM      29.47S
BUTLER*        CLOUDY    55  54  94 NE8       29.47F
PITTSBURGH INT LGT RAIN  56  56 100 SE7       29.47S
PITTSBURGH     CLOUDY    56  53  90 SE5       29.47S
INDIANA*       MOSUNNY   55  55 100 E7        29.51F
LATROBE        CLOUDY    55  55 100 VRB5      29.48S
WASHINGTON CO* CLOUDY    55  54  94 S3        29.51R
$$

PAZ004>006-010>012-017>019-024>028-033>037-041-042-045-046-049>053-251400-
CENTRAL PENNSYLVANIA

CITY           SKY/WX    TMP DP  RH WIND       PRES   REMARKS
BRADFORD       RAIN      51  51 100 SE6       29.54S FOG
DUBOIS         LGT RAIN  52  50  93 E7        29.50F FOG
CLEARFIELD     RAIN      53  53 100 NE7       29.53F FOG
JOHNSTOWN      CLOUDY    52  51  97 E6        29.49F
ALTOONA        LGT RAIN  56  54  93 E7        29.52F
STATE COLLEGE  RAIN      54  52  94 CALM      29.54S
WILLIAMSPORT   RAIN      57  54  89 E12       29.53F FOG
SELINSGROVE    FOG       57  55  93 VRB3      29.53S VSB 1
FT INDIANTOWN  RAIN      55  55 100 E9        29.55R VSB 1
CAPITAL CITY   LGT RAIN  57  53  86 E13G18    29.54  FOG
HARRISBURG     RAIN      56  55  97 SE13      29.53R FOG
YORK           LGT RAIN  56  55  97 MISG      29.52S
$$

PAZ038>040-043-044-047-048-054-055-060>062-067>071-251400-
EASTERN PENNSYLVANIA

CITY           SKY/WX    TMP DP  RH WIND       PRES   REMARKS
SCRANTON       CLOUDY    57  53  86 E7        29.59F
MOUNT POCONO   LGT RAIN  50  50 100 E17       29.61F FOG
ALLENTOWN      RAIN      57  53  86 E14G24    29.59F
QUAKERTOWN*    CLOUDY    55  55 100 E14G20    29.60S
READING        LGT RAIN  56  55  97 VRB5      29.55F
LANCASTER      LGT RAIN  56  56 100 E15       29.54R FOG
COATESVILLE    LGT RAIN  54  54 100 E17       29.57S
POTTSTOWN      LGT RAIN  54  53  97 VRB7      29.59F FOG
BLUE BELL      CLOUDY    52  52 100 E10G16    29.60S
DOYLESTOWN     RAIN      54  54 100 VRB6      29.59F FOG
WILLOW GROVE   NOT AVBL
NORTH PHILA    RAIN      56  54  93 E14       29.62S FOG
PHILADELPHIA   LGT RAIN  56  54  93 E15       29.58F FOG
$$




USA.gov is the U.S. government's official web portal to all federal, state and local government web resources and services.